• In Belarus
  • List of Countries
  • For 7 days
  • Water Temperature
  • Weather Map
  • Weather Widgets
  • user-avatar
    Login

    Hourly Weather Djelfa

    Today, 19 September, Thursday

    Time Temperature Precipitation Wind Pressure Humidity
    00:00 +24°C° 0 mm 6 mps 667 mmHg 37%
    01:00 +25°C° 0 mm 5 mps 667 mmHg 36%
    02:00 +25°C° 0 mm 5 mps 667 mmHg 35%
    03:00 +25°C° 0 mm 5 mps 667 mmHg 34%
    04:00 +23°C° 0 mm 5 mps 667 mmHg 46%
    05:00 +22°C° 0 mm 5 mps 667 mmHg 57%
    06:00 +21°C° 0 mm 5 mps 667 mmHg 68%
    07:00 +23°C° 0 mm 5 mps 668 mmHg 55%
    08:00 +26°C° 0 mm 4 mps 668 mmHg 42%
    09:00 +28°C° 0 mm 4 mps 669 mmHg 28%
    10:00 +29°C° 0.1 mm 6 mps 669 mmHg 26%
    11:00 +30°C° 0.1 mm 7 mps 669 mmHg 24%
    12:00 +32°C° 0.1 mm 8 mps 669 mmHg 21%
    13:00 +32°C° 0 mm 8 mps 669 mmHg 20%
    14:00 +33°C° 0 mm 8 mps 668 mmHg 19%
    15:00 +33°C° 0 mm 8 mps 668 mmHg 18%
    16:00 +32°C° 0 mm 8 mps 668 mmHg 19%
    17:00 +30°C° 0 mm 7 mps 667 mmHg 20%
    18:00 +29°C° 0 mm 6 mps 667 mmHg 22%
    19:00 +29°C° 0 mm 6 mps 667 mmHg 22%
    20:00 +28°C° 0 mm 6 mps 668 mmHg 23%
    21:00 +27°C° 0 mm 6 mps 668 mmHg 24%
    22:00 +27°C° 0 mm 6 mps 668 mmHg 24%
    23:00 +26°C° 0 mm 6 mps 668 mmHg 24%

    Tomorrow, 20 September, Friday

    Time Temperature Precipitation Wind Pressure Humidity
    00:00 +26°C° 0 mm 5 mps 667 mmHg 24%
    01:00 +26°C° 0 mm 5 mps 667 mmHg 24%
    02:00 +25°C° 0 mm 5 mps 667 mmHg 24%
    03:00 +25°C° 0 mm 4 mps 667 mmHg 24%
    04:00 +25°C° 0 mm 4 mps 666 mmHg 25%
    05:00 +24°C° 0 mm 3 mps 666 mmHg 27%
    06:00 +23°C° 0 mm 2 mps 666 mmHg 29%
    07:00 +25°C° 0 mm 4 mps 667 mmHg 25%
    08:00 +28°C° 0 mm 5 mps 668 mmHg 22%
    09:00 +30°C° 0 mm 6 mps 669 mmHg 18%
    10:00 +30°C° 0 mm 6 mps 669 mmHg 18%
    11:00 +32°C° 0 mm 7 mps 668 mmHg 18%
    12:00 +33°C° 0 mm 7 mps 668 mmHg 18%
    13:00 +33°C° 0 mm 7 mps 668 mmHg 17%
    14:00 +33°C° 0 mm 7 mps 668 mmHg 17%
    15:00 +33°C° 0 mm 7 mps 667 mmHg 16%
    16:00 +33°C° 0 mm 6 mps 667 mmHg 18%
    17:00 +32°C° 0 mm 5 mps 667 mmHg 20%
    18:00 +30°C° 0 mm 4 mps 667 mmHg 22%
    19:00 +29°C° 0.1 mm 4 mps 667 mmHg 23%
    20:00 +28°C° 0.1 mm 4 mps 667 mmHg 25%
    21:00 +28°C° 0.1 mm 4 mps 667 mmHg 26%
    22:00 +27°C° 0 mm 4 mps 667 mmHg 28%
    23:00 +27°C° 0 mm 5 mps 667 mmHg 29%

    Day after tomorrow, 21 September, Saturday

    Time Temperature Precipitation Wind Pressure Humidity
    00:00 +27°C° 0 mm 6 mps 667 mmHg 31%
    01:00 +26°C° 0 mm 5 mps 666 mmHg 33%
    02:00 +25°C° 0 mm 4 mps 666 mmHg 34%
    03:00 +25°C° 0 mm 4 mps 666 mmHg 36%
    04:00 +24°C° 0 mm 3 mps 666 mmHg 40%
    05:00 +23°C° 0 mm 2 mps 666 mmHg 44%
    06:00 +22°C° 0 mm 1 mps 666 mmHg 48%
    07:00 +24°C° 0 mm 2 mps 666 mmHg 41%
    08:00 +26°C° 0 mm 3 mps 667 mmHg 35%
    09:00 +28°C° 0 mm 4 mps 668 mmHg 28%
    10:00 +29°C° 0 mm 6 mps 668 mmHg 25%
    11:00 +32°C° 0 mm 7 mps 667 mmHg 22%
    12:00 +33°C° 0 mm 9 mps 667 mmHg 20%
    13:00 +34°C° 0 mm 9 mps 667 mmHg 18%
    14:00 +34°C° 0 mm 9 mps 666 mmHg 15%
    15:00 +35°C° 0 mm 9 mps 666 mmHg 13%
    16:00 +34°C° 0 mm 7 mps 666 mmHg 14%
    17:00 +33°C° 0 mm 5 mps 666 mmHg 16%
    18:00 +32°C° 0 mm 4 mps 666 mmHg 17%
    19:00 +30°C° 0 mm 3 mps 666 mmHg 18%
    20:00 +30°C° 0 mm 3 mps 666 mmHg 19%
    21:00 +29°C° 0 mm 2 mps 667 mmHg 20%
    22:00 +28°C° 0 mm 2 mps 666 mmHg 21%
    23:00 +28°C° 0 mm 1 mps 666 mmHg 23%

    22 September, Sunday

    Time Temperature Precipitation Wind Pressure Humidity
    00:00 +27°C° 0 mm 1 mps 666 mmHg 25%
    01:00 +27°C° 0 mm 2 mps 665 mmHg 25%
    02:00 +26°C° 0 mm 2 mps 665 mmHg 24%
    03:00 +26°C° 0 mm 3 mps 665 mmHg 24%
    04:00 +26°C° 0 mm 4 mps 665 mmHg 24%
    05:00 +26°C° 0 mm 4 mps 665 mmHg 23%
    06:00 +26°C° 0 mm 5 mps 665 mmHg 22%
    07:00 +27°C° 0 mm 6 mps 666 mmHg 21%
    08:00 +28°C° 0 mm 6 mps 666 mmHg 20%
    09:00 +29°C° 0 mm 7 mps 667 mmHg 19%
    10:00 +30°C° 0 mm 7 mps 667 mmHg 20%
    11:00 +30°C° 0 mm 7 mps 667 mmHg 21%
    12:00 +32°C° 0 mm 7 mps 667 mmHg 22%
    13:00 +32°C° 0 mm 6 mps 667 mmHg 21%
    14:00 +32°C° 0 mm 5 mps 666 mmHg 21%
    15:00 +33°C° 0 mm 4 mps 666 mmHg 21%
    16:00 +30°C° 0 mm 4 mps 666 mmHg 26%
    17:00 +29°C° 0 mm 4 mps 666 mmHg 31%
    18:00 +27°C° 0 mm 3 mps 666 mmHg 35%
    19:00 +26°C° 0 mm 3 mps 666 mmHg 42%
    20:00 +25°C° 0 mm 2 mps 666 mmHg 48%
    21:00 +24°C° 0 mm 2 mps 667 mmHg 54%
    22:00 +23°C° 0 mm 2 mps 667 mmHg 58%
    23:00 +22°C° 0 mm 3 mps 666 mmHg 61%

    23 September, Monday

    Time Temperature Precipitation Wind Pressure Humidity
    00:00 +21°C° 0 mm 3 mps 666 mmHg 64%
    01:00 +21°C° 0 mm 3 mps 666 mmHg 66%
    02:00 +20°C° 0 mm 3 mps 666 mmHg 69%
    03:00 +20°C° 0 mm 3 mps 666 mmHg 71%
    04:00 +20°C° 0 mm 3 mps 666 mmHg 71%
    05:00 +19°C° 0 mm 2 mps 666 mmHg 72%
    06:00 +19°C° 0 mm 2 mps 666 mmHg 72%
    07:00 +21°C° 0 mm 2 mps 667 mmHg 63%
    08:00 +23°C° 0 mm 2 mps 667 mmHg 53%
    09:00 +25°C° 0 mm 2 mps 668 mmHg 44%
    10:00 +27°C° 0 mm 2 mps 668 mmHg 39%
    11:00 +28°C° 0 mm 2 mps 669 mmHg 33%
    12:00 +30°C° 0 mm 2 mps 669 mmHg 28%
    13:00 +30°C° 0 mm 2 mps 669 mmHg 26%
    14:00 +31°C° 0 mm 3 mps 668 mmHg 24%
    15:00 +33°C° 0 mm 3 mps 668 mmHg 23%
    16:00 +30°C° 0 mm 3 mps 668 mmHg 25%
    17:00 +29°C° 0 mm 3 mps 668 mmHg 27%
    18:00 +28°C° 0 mm 3 mps 667 mmHg 29%
    19:00 +27°C° 0 mm 3 mps 668 mmHg 31%
    20:00 +26°C° 0 mm 2 mps 668 mmHg 32%
    21:00 +26°C° 0 mm 2 mps 668 mmHg 34%
    22:00 +25°C° 0 mm 2 mps 668 mmHg 36%
    23:00 +25°C° 0 mm 1 mps 668 mmHg 38%

    24 September, Tuesday

    Time Temperature Precipitation Wind Pressure Humidity
    00:00 +24°C° 0 mm 1 mps 668 mmHg 40%
    01:00 +24°C° 0 mm 1 mps 667 mmHg 41%
    02:00 +23°C° 0 mm 1 mps 667 mmHg 42%
    03:00 +23°C° 0 mm 1 mps 667 mmHg 43%
    04:00 +23°C° 0 mm 1 mps 667 mmHg 44%
    05:00 +20°C° 0 mm 0 mps 667 mmHg 45%
    06:00 +20°C° 0 mm 0 mps 667 mmHg 46%
    07:00 +24°C° 0 mm 1 mps 667 mmHg 40%
    08:00 +26°C° 0 mm 1 mps 668 mmHg 35%
    09:00 +28°C° 0 mm 1 mps 669 mmHg 30%
    10:00 +29°C° 0 mm 2 mps 669 mmHg 27%
    11:00 +31°C° 0 mm 2 mps 669 mmHg 25%
    12:00 +33°C° 0 mm 3 mps 669 mmHg 22%
    13:00 +33°C° 0 mm 3 mps 669 mmHg 21%
    14:00 +34°C° 0 mm 3 mps 668 mmHg 20%
    15:00 +34°C° 0 mm 4 mps 668 mmHg 19%
    16:00 +33°C° 0 mm 3 mps 668 mmHg 22%
    17:00 +31°C° 0 mm 3 mps 667 mmHg 25%
    18:00 +30°C° 0 mm 2 mps 667 mmHg 28%
    19:00 +29°C° 0 mm 2 mps 667 mmHg 31%
    20:00 +28°C° 0 mm 2 mps 667 mmHg 33%
    21:00 +27°C° 0 mm 1 mps 667 mmHg 36%
    22:00 +27°C° 0 mm 2 mps 667 mmHg 36%
    23:00 +26°C° 0 mm 3 mps 667 mmHg 37%
    Show more